,,Stat6,,Stat2,,Stat8,,Stat9,,Stat10,,Wind1,,Wind1,
time,status,PA1M_AVG,status,PR1M_SUM,status,RH1M_AVG,status,SR1M_AVG,status,TA1M_AVG,status,W1dAve1m,status,W1sAve1m,
2007-03-30, 00:00:00,VALID,917.706,VALID,0,VALID,98.9525,VALID,-0.0339617,VALID,20.5597,VALID,153,VALID,0.809451,
2007-03-30, 00:01:00,VALID,917.72,VALID,0,VALID,98.8278,VALID,-0.0509425,VALID,20.593,VALID,158,VALID,0.457031,
2007-03-30, 00:02:00,VALID,917.727,VALID,0,VALID,98.7185,VALID,-0.0339617,VALID,20.5925,VALID,162,VALID,0.657552,
2007-03-30, 00:03:00,VALID,917.74,VALID,0,VALID,98.6295,VALID,-0.0339617,VALID,20.5987,VALID,176,VALID,0.336119,
2007-03-30, 00:04:00,VALID,917.747,VALID,0,VALID,98.5163,VALID,0,VALID,20.5987,VALID,178,VALID,0.206745,
2007-03-30, 00:05:00,VALID,917.751,VALID,0,VALID,98.398,VALID,-0.0509425,VALID,20.5757,VALID,178,VALID,0.324396,
2007-03-30, 00:06:00,VALID,917.753,VALID,0,VALID,98.4235,VALID,-0.0509425,VALID,20.5597,VALID,204,VALID,0.216206,
2007-03-30, 00:07:00,VALID,917.735,VALID,0,VALID,98.5341,VALID,-0.0169808,VALID,20.5433,VALID,206,VALID,0,
2007-03-30, 00:08:00,VALID,917.712,VALID,0,VALID,98.688,VALID,-0.0509425,VALID,20.5138,VALID,206,VALID,0,
2007-03-30, 00:09:00,VALID,917.699,VALID,0,VALID,98.824,VALID,-0.0849042,VALID,20.4954,VALID,206,VALID,0.00090843,
2007-03-30, 00:10:00,VALID,917.694,VALID,0,VALID,99.0109,VALID,-0.0169808,VALID,20.4559,VALID,206,VALID,0.0133929,
2007-03-30, 00:11:00,VALID,917.68,VALID,0,VALID,99.2335,VALID,-0.0849042,VALID,20.4207,VALID,206,VALID,0.208212,
2007-03-30, 00:12:00,VALID,917.666,VALID,0,VALID,99.4522,VALID,-0.0679233,VALID,20.401,VALID,206,VALID,0.0639535,
2007-03-30, 00:13:00,VALID,917.647,VALID,0,VALID,99.6035,VALID,-0.101885,VALID,20.369,VALID,165,VALID,0.554306,
2007-03-30, 00:14:00,VALID,917.623,VALID,0,VALID,99.6277,VALID,-0.0849042,VALID,20.3428,VALID,136,VALID,0.566497,
2007-03-30, 00:15:00,VALID,917.591,VALID,0,VALID,99.6175,VALID,-0.0339617,VALID,20.3196,VALID,132,VALID,0.278409,
2007-03-30, 00:16:00,VALID,917.578,VALID,0,VALID,99.6073,VALID,-0.0509425,VALID,20.3204,VALID,160,VALID,0.393111,
2007-03-30, 00:17:00,VALID,917.553,VALID,0,VALID,99.587,VALID,-0.0679233,VALID,20.3039,VALID,158,VALID,0.514898,
2007-03-30, 00:18:00,VALID,917.551,VALID,0,VALID,99.4433,VALID,-0.0679233,VALID,20.2879,VALID,161,VALID,0.552083,
2007-03-30, 00:19:00,VALID,917.557,VALID,0,VALID,99.2793,VALID,-0.0679233,VALID,20.2812,VALID,169,VALID,1.16979,
2007-03-30, 00:20:00,VALID,917.554,VALID,0,VALID,99.1,VALID,-0.0339617,VALID,20.2717,VALID,159,VALID,0.725,
2007-03-30, 00:21:00,VALID,917.54,VALID,0,VALID,99.0109,VALID,-0.0849042,VALID,20.2847,VALID,137,VALID,0.408008,
2007-03-30, 00:22:00,VALID,917.542,VALID,0,VALID,98.8825,VALID,-0.0509425,VALID,20.2747,VALID,130,VALID,0.531068,
2007-03-30, 00:23:00,VALID,917.526,VALID,0,VALID,98.7299,VALID,-0.0679233,VALID,20.2582,VALID,143,VALID,0.524581,
2007-03-30, 00:24:00,VALID,917.517,VALID,0,VALID,98.5468,VALID,-0.0849042,VALID,20.2582,VALID,123,VALID,0.490916,
2007-03-30, 00:25:00,VALID,917.528,VALID,0,VALID,98.4692,VALID,-0.0679233,VALID,20.2482,VALID,118,VALID,0.513672,
2007-03-30, 00:26:00,VALID,917.521,VALID,0,VALID,98.3891,VALID,-0.101885,VALID,20.249,VALID,148,VALID,0.117686,
2007-03-30, 00:27:00,VALID,917.496,VALID,0,VALID,98.4158,VALID,-0.0849042,VALID,20.2455,VALID,222,VALID,0.47923,
2007-03-30, 00:28:00,VALID,917.499,VALID,0,VALID,98.4718,VALID,-0.0509425,VALID,20.2549,VALID,226,VALID,0.5625,
2007-03-30, 00:29:00,VALID,917.513,VALID,0,VALID,98.6269,VALID,0,VALID,20.2412,VALID,223,VALID,0.312682,
2007-03-30, 00:30:00,VALID,917.512,VALID,0,VALID,99.0491,VALID,0.0679233,VALID,20.2374,VALID,236,VALID,0.433594,
2007-03-30, 00:31:00,VALID,917.494,VALID,0,VALID,99.3225,VALID,0.0169808,VALID,20.2247,VALID,238,VALID,0.285528,
2007-03-30, 00:32:00,VALID,917.5,VALID,0,VALID,99.5679,VALID,0.0169808,VALID,20.2055,VALID,256,VALID,0.551562,
2007-03-30, 00:33:00,VALID,917.499,VALID,0,VALID,99.7447,VALID,0.0169808,VALID,20.179,VALID,247,VALID,0.600497,
2007-03-30, 00:34:00,VALID,917.494,VALID,0,VALID,99.6607,VALID,0.0339617,VALID,20.1596,VALID,266,VALID,0.619731,
2007-03-30, 00:35:00,VALID,917.479,VALID,0,VALID,99.8184,VALID,0.0169808,VALID,20.1458,VALID,284,VALID,0.814787,
2007-03-30, 00:36:00,VALID,917.483,VALID,0,VALID,99.9728,VALID,0.0509425,VALID,20.1463,VALID,306,VALID,0.42951,
2007-03-30, 00:37:00,VALID,917.485,VALID,0,VALID,99.6951,VALID,0.0339617,VALID,20.0879,VALID,22,VALID,0.801153,
2007-03-30, 00:38:00,VALID,917.482,VALID,0,VALID,99.5425,VALID,0.0679233,VALID,19.9873,VALID,37,VALID,0.770167,
2007-03-30, 00:39:00,VALID,917.475,VALID,0,VALID,99.7116,VALID,0,VALID,19.9194,VALID,37,VALID,0.313802,
2007-03-30, 00:40:00,VALID,917.473,VALID,0,VALID,99.9814,VALID,0.0169808,VALID,19.8872,VALID,36,VALID,0.38125,
2007-03-30, 00:41:00,VALID,917.464,VALID,0,VALID,100,VALID,-0.0849042,VALID,19.9277,VALID,347,VALID,0.956676,
2007-03-30, 00:42:00,VALID,917.459,VALID,0,VALID,100,VALID,-0.0679233,VALID,19.9988,VALID,315,VALID,1.16348,
2007-03-30, 00:43:00,VALID,917.438,VALID,0,VALID,100,VALID,-0.0509425,VALID,20.0375,VALID,282,VALID,0.804315,
2007-03-30, 00:44:00,VALID,917.443,VALID,0,VALID,100,VALID,-0.0339617,VALID,20.0789,VALID,80,VALID,0.972561,
2007-03-30, 00:45:00,VALID,917.396,VALID,0,VALID,100,VALID,-0.0339617,VALID,20.183,VALID,150,VALID,1.6962,
2007-03-30, 00:46:00,VALID,917.384,VALID,0,VALID,99.6518,VALID,-0.0339617,VALID,20.3031,VALID,162,VALID,1.11973,
2007-03-30, 00:47:00,VALID,917.359,VALID,0,VALID,99.0415,VALID,0,VALID,20.384,VALID,164,VALID,1.18322,
2007-03-30, 00:48:00,VALID,917.352,VALID,0,VALID,98.5608,VALID,-0.0169808,VALID,20.4619,VALID,152,VALID,0.958333,
2007-03-30, 00:49:00,VALID,917.35,VALID,0,VALID,98.0115,VALID,-0.0169808,VALID,20.4781,VALID,112,VALID,0.642987,
2007-03-30, 00:50:00,VALID,917.36,VALID,0,VALID,97.7648,VALID,-0.0509425,VALID,20.4976,VALID,104,VALID,0.647675,
2007-03-30, 00:51:00,VALID,917.365,VALID,0,VALID,97.6122,VALID,-0.0169808,VALID,20.4816,VALID,101,VALID,0.764266,
2007-03-30, 00:52:00,VALID,917.372,VALID,0,VALID,97.6923,VALID,0,VALID,20.4646,VALID,107,VALID,0.804865,
2007-03-30, 00:53:00,VALID,917.363,VALID,0,VALID,97.7025,VALID,0,VALID,20.4616,VALID,107,VALID,0.698633,
2007-03-30, 00:54:00,VALID,917.364,VALID,0,VALID,97.7622,VALID,-0.0509425,VALID,20.4624,VALID,107,VALID,0.698933,
2007-03-30, 00:55:00,VALID,917.35,VALID,0,VALID,97.8042,VALID,-0.0339617,VALID,20.4686,VALID,107,VALID,0.78234,
2007-03-30, 00:56:00,VALID,917.34,VALID,0,VALID,97.7673,VALID,-0.0679233,VALID,20.4913,VALID,107,VALID,0.684524,
2007-03-30, 00:57:00,VALID,917.324,VALID,0,VALID,97.602,VALID,-0.0169808,VALID,20.5043,VALID,109,VALID,0.640067,
2007-03-30, 00:58:00,VALID,917.308,VALID,0,VALID,97.4799,VALID,-0.0339617,VALID,20.5008,VALID,132,VALID,0.797461,
2007-03-30, 00:59:00,VALID,917.284,VALID,0,VALID,97.4113,VALID,-0.0339617,VALID,20.4816,VALID,152,VALID,0.981836,
2007-03-30, 01:00:00,VALID,917.276,VALID,0,VALID,97.4634,VALID,-0.0339617,VALID,20.4624,VALID,164,VALID,1.17188,
2007-03-30, 01:01:00,VALID,917.268,VALID,0,VALID,97.3909,VALID,0,VALID,20.4362,VALID,166,VALID,1.11265,
2007-03-30, 01:02:00,VALID,917.241,VALID,0,VALID,97.2371,VALID,-0.0169808,VALID,20.3775,VALID,166,VALID,0.970238,
2007-03-30, 01:03:00,VALID,917.235,VALID,0,VALID,97.3095,VALID,-0.0339617,VALID,20.3096,VALID,169,VALID,1.02441,
2007-03-30, 01:04:00,VALID,917.211,VALID,0,VALID,97.3896,VALID,-0.0169808,VALID,20.2217,VALID,170,VALID,0.831845,
2007-03-30, 01:05:00,VALID,917.207,VALID,0,VALID,97.7355,VALID,-0.0339617,VALID,20.1573,VALID,167,VALID,0.674237,
2007-03-30, 01:06:00,VALID,917.196,VALID,0,VALID,97.7495,VALID,0,VALID,20.1024,VALID,166,VALID,0.64226,
2007-03-30, 01:07:00,VALID,917.202,VALID,0,VALID,97.9809,VALID,-0.0169808,VALID,20.0205,VALID,160,VALID,0.924237,
2007-03-30, 01:08:00,VALID,917.197,VALID,0,VALID,98.4845,VALID,-0.0169808,VALID,19.9749,VALID,155,VALID,1.14222,
2007-03-30, 01:09:00,VALID,917.197,VALID,0,VALID,98.8278,VALID,0,VALID,19.9524,VALID,148,VALID,1.27455,
2007-03-30, 01:10:00,VALID,917.221,VALID,0,VALID,99.0415,VALID,-0.0169808,VALID,19.9456,VALID,130,VALID,1.14234,
2007-03-30, 01:11:00,VALID,917.233,VALID,0,VALID,98.8914,VALID,0,VALID,19.9132,VALID,113,VALID,0.84426,
2007-03-30, 01:12:00,VALID,917.231,VALID,0,VALID,99.0542,VALID,-0.0339617,VALID,19.878,VALID,118,VALID,1.0943,
2007-03-30, 01:13:00,VALID,917.222,VALID,0,VALID,99.5755,VALID,0,VALID,19.8713,VALID,132,VALID,1.07422,
2007-03-30, 01:14:00,VALID,917.198,VALID,0,VALID,99.7574,VALID,-0.0169808,VALID,19.8778,VALID,140,VALID,0.825648,
2007-03-30, 01:15:00,VALID,917.183,VALID,0,VALID,99.7765,VALID,-0.0509425,VALID,19.8618,VALID,138,VALID,1.05673,
2007-03-30, 01:16:00,VALID,917.169,VALID,0,VALID,99.9491,VALID,-0.0169808,VALID,19.8518,VALID,138,VALID,0.999219,
2007-03-30, 01:17:00,VALID,917.151,VALID,0,VALID,99.9929,VALID,-0.0169808,VALID,19.8323,VALID,140,VALID,0.977983,
2007-03-30, 01:18:00,VALID,917.127,VALID,0,VALID,99.9456,VALID,-0.0339617,VALID,19.7969,VALID,134,VALID,0.949751,
2007-03-30, 01:19:00,VALID,917.123,VALID,0,VALID,99.9952,VALID,0,VALID,19.7642,VALID,134,VALID,1.05841,
2007-03-30, 01:20:00,VALID,917.086,VALID,0,VALID,100,VALID,-0.0339617,VALID,19.7415,VALID,140,VALID,0.981944,
2007-03-30, 01:21:00,VALID,917.066,VALID,0,VALID,100,VALID,0,VALID,19.7412,VALID,145,VALID,0.84282,
2007-03-30, 01:22:00,VALID,917.045,VALID,0,VALID,100,VALID,0,VALID,19.7415,VALID,143,VALID,0.889946,
2007-03-30, 01:23:00,VALID,917.028,VALID,0,VALID,100,VALID,0,VALID,19.7382,VALID,141,VALID,0.816051,
2007-03-30, 01:24:00,VALID,917.03,VALID,0,VALID,100,VALID,-0.0169808,VALID,19.7382,VALID,142,VALID,0.726744,
2007-03-30, 01:25:00,VALID,917.015,VALID,0,VALID,100,VALID,0,VALID,19.7417,VALID,142,VALID,0.886242,
2007-03-30, 01:26:00,VALID,916.992,VALID,0,VALID,100,VALID,0,VALID,19.7512,VALID,143,VALID,0.769618,
2007-03-30, 01:27:00,VALID,916.975,VALID,0,VALID,100,VALID,-0.0169808,VALID,19.7575,VALID,148,VALID,0.777876,
2007-03-30, 01:28:00,VALID,916.969,VALID,0,VALID,100,VALID,0,VALID,19.7545,VALID,150,VALID,0.742188,
2007-03-30, 01:29:00,VALID,916.951,VALID,0,VALID,100,VALID,0.0169808,VALID,19.7545,VALID,152,VALID,0.794531,
2007-03-30, 01:30:00,VALID,916.939,VALID,0,VALID,100,VALID,-0.0169808,VALID,19.7677,VALID,153,VALID,0.557664,
2007-03-30, 01:31:00,VALID,916.921,VALID,0,VALID,100,VALID,0,VALID,19.7739,VALID,153,VALID,0.526526,
2007-03-30, 01:32:00,VALID,916.906,VALID,0,VALID,100,VALID,-0.0679233,VALID,19.7969,VALID,153,VALID,0.573153,
2007-03-30, 01:33:00,VALID,916.886,VALID,0,VALID,100,VALID,0.0169808,VALID,19.8129,VALID,153,VALID,0.522372,
2007-03-30, 01:34:00,VALID,916.865,VALID,0,VALID,100,VALID,0,VALID,19.8096,VALID,153,VALID,0.452939,
2007-03-30, 01:35:00,VALID,916.841,VALID,0,VALID,100,VALID,-0.0169808,VALID,19.8129,VALID,153,VALID,0.437119,
2007-03-30, 01:36:00,VALID,916.829,VALID,0,VALID,100,VALID,-0.0169808,VALID,19.8194,VALID,153,VALID,0.480664,
2007-03-30, 01:37:00,VALID,916.825,VALID,0,VALID,100,VALID,0,VALID,19.8258,VALID,153,VALID,0.635298,
2007-03-30, 01:38:00,VALID,916.808,VALID,0,VALID,100,VALID,0,VALID,19.8261,VALID,153,VALID,0.772529,
2007-03-30, 01:39:00,VALID,916.806,VALID,0,VALID,100,VALID,0.0169808,VALID,19.8226,VALID,154,VALID,0.718378,
2007-03-30, 01:40:00,VALID,916.805,VALID,0,VALID,100,VALID,0,VALID,19.7837,VALID,145,VALID,1.0364,
2007-03-30, 01:41:00,VALID,916.79,VALID,0,VALID,100,VALID,-0.0169808,VALID,19.7804,VALID,143,VALID,1.35286,
2007-03-30, 01:42:00,VALID,916.781,VALID,0,VALID,100,VALID,-0.0339617,VALID,19.8291,VALID,146,VALID,1.37965,
2007-03-30, 01:43:00,VALID,916.771,VALID,0,VALID,100,VALID,-0.0339617,VALID,19.8775,VALID,151,VALID,0.96875,
2007-03-30, 01:44:00,VALID,916.766,VALID,0,VALID,99.999,VALID,-0.0169808,VALID,19.8902,VALID,151,VALID,0.827753,
2007-03-30, 01:45:00,VALID,916.755,VALID,0,VALID,99.9201,VALID,0,VALID,19.894,VALID,152,VALID,0.826527,
2007-03-30, 01:46:00,VALID,916.736,VALID,0,VALID,99.7027,VALID,0.0169808,VALID,19.8738,VALID,153,VALID,0.771205,
2007-03-30, 01:47:00,VALID,916.73,VALID,0,VALID,99.6671,VALID,-0.0169808,VALID,19.8418,VALID,154,VALID,0.725535,
2007-03-30, 01:48:00,VALID,916.705,VALID,0,VALID,99.7536,VALID,-0.0169808,VALID,19.8194,VALID,149,VALID,0.662157,
2007-03-30, 01:49:00,VALID,916.699,VALID,0,VALID,99.8889,VALID,-0.0169808,VALID,19.7966,VALID,153,VALID,0.933966,
2007-03-30, 01:50:00,VALID,916.691,VALID,0,VALID,99.9059,VALID,-0.0339617,VALID,19.8064,VALID,157,VALID,0.850781,
2007-03-30, 01:51:00,VALID,916.68,VALID,0,VALID,99.926,VALID,-0.0169808,VALID,19.7802,VALID,164,VALID,1.01097,
2007-03-30, 01:52:00,VALID,916.672,VALID,0,VALID,100,VALID,-0.0339617,VALID,19.8031,VALID,165,VALID,0.85556,
2007-03-30, 01:53:00,VALID,916.668,VALID,0,VALID,100,VALID,0,VALID,19.8061,VALID,158,VALID,0.947545,
2007-03-30, 01:54:00,VALID,916.662,VALID,0,VALID,99.9878,VALID,0,VALID,19.7867,VALID,151,VALID,0.830669,
2007-03-30, 01:55:00,VALID,916.671,VALID,0,VALID,99.9606,VALID,0,VALID,19.7475,VALID,151,VALID,1.18784,
2007-03-30, 01:56:00,VALID,916.662,VALID,0,VALID,99.999,VALID,0,VALID,19.7053,VALID,144,VALID,1.1048,
2007-03-30, 01:57:00,VALID,916.67,VALID,0,VALID,100,VALID,0,VALID,19.7218,VALID,140,VALID,1.484,
2007-03-30, 01:58:00,VALID,916.672,VALID,0,VALID,100,VALID,-0.0339617,VALID,19.7352,VALID,147,VALID,1.40518,
2007-03-30, 01:59:00,VALID,916.685,VALID,0,VALID,100,VALID,-0.101885,VALID,19.7332,VALID,137,VALID,1.36347,
2007-03-30, 02:00:00,VALID,916.677,VALID,0,VALID,100,VALID,-0.101885,VALID,19.7819,VALID,130,VALID,1.24516,
2007-03-30, 02:01:00,VALID,916.665,VALID,0,VALID,100,VALID,-0.118866,VALID,19.8176,VALID,127,VALID,1.01451,
2007-03-30, 02:02:00,VALID,916.673,VALID,0,VALID,100,VALID,-0.118866,VALID,19.8141,VALID,128,VALID,1.07191,
2007-03-30, 02:03:00,VALID,916.66,VALID,0,VALID,99.9486,VALID,-0.135847,VALID,19.8176,VALID,118,VALID,0.948661,
2007-03-30, 02:04:00,VALID,916.658,VALID,0,VALID,99.9837,VALID,-0.101885,VALID,19.8076,VALID,139,VALID,1.25372,
2007-03-30, 02:05:00,VALID,916.675,VALID,0,VALID,99.9855,VALID,-0.118866,VALID,19.8268,VALID,135,VALID,1.0206,
2007-03-30, 02:06:00,VALID,916.674,VALID,0,VALID,100,VALID,-0.0849042,VALID,19.8401,VALID,142,VALID,1.04688,
2007-03-30, 02:07:00,VALID,916.66,VALID,0,VALID,99.9626,VALID,-0.118866,VALID,19.8531,VALID,140,VALID,0.51508,
2007-03-30, 02:08:00,VALID,916.662,VALID,0,VALID,99.8184,VALID,-0.101885,VALID,19.8533,VALID,140,VALID,0.392624,
2007-03-30, 02:09:00,VALID,916.66,VALID,0,VALID,99.62,VALID,-0.101885,VALID,19.8171,VALID,142,VALID,0.617188,
2007-03-30, 02:10:00,VALID,916.664,VALID,0,VALID,99.4891,VALID,-0.101885,VALID,19.7852,VALID,152,VALID,0.930246,
2007-03-30, 02:11:00,VALID,916.674,VALID,0,VALID,99.3314,VALID,-0.101885,VALID,19.707,VALID,148,VALID,0.584821,
2007-03-30, 02:12:00,VALID,916.684,VALID,0,VALID,99.5666,VALID,-0.0849042,VALID,19.6519,VALID,154,VALID,0.757227,
2007-03-30, 02:13:00,VALID,916.685,VALID,0,VALID,99.9034,VALID,-0.0849042,VALID,19.6516,VALID,148,VALID,0.770898,
2007-03-30, 02:14:00,VALID,916.702,VALID,0,VALID,100,VALID,0,VALID,19.6469,VALID,128,VALID,0.857279,
2007-03-30, 02:15:00,VALID,916.7,VALID,0,VALID,100,VALID,-0.0339617,VALID,19.6666,VALID,138,VALID,0.871366,
2007-03-30, 02:16:00,VALID,916.693,VALID,0,VALID,100,VALID,0,VALID,19.6691,VALID,121,VALID,1.00859,
2007-03-30, 02:17:00,VALID,916.681,VALID,0,VALID,100,VALID,-0.0169808,VALID,19.7118,VALID,129,VALID,0.991477,
2007-03-30, 02:18:00,VALID,916.681,VALID,0,VALID,100,VALID,0,VALID,19.7445,VALID,124,VALID,1.06063,
2007-03-30, 02:19:00,VALID,916.67,VALID,0,VALID,99.8436,VALID,-0.0339617,VALID,19.7542,VALID,135,VALID,1.24256,
2007-03-30, 02:20:00,VALID,916.661,VALID,0,VALID,99.4166,VALID,0,VALID,19.7707,VALID,142,VALID,0.892756,
2007-03-30, 02:21:00,VALID,916.646,VALID,0,VALID,98.9995,VALID,-0.0169808,VALID,19.8194,VALID,147,VALID,1.66387,
2007-03-30, 02:22:00,VALID,916.648,VALID,0,VALID,98.4311,VALID,0.0169808,VALID,19.8613,VALID,150,VALID,1.37766,
2007-03-30, 02:23:00,VALID,916.639,VALID,0,VALID,98.2989,VALID,-0.0339617,VALID,19.91,VALID,145,VALID,1.4851,
2007-03-30, 02:24:00,VALID,916.654,VALID,0,VALID,97.9046,VALID,-0.0339617,VALID,19.9878,VALID,157,VALID,1.49918,
2007-03-30, 02:25:00,VALID,916.66,VALID,0,VALID,97.4481,VALID,0,VALID,20.0465,VALID,154,VALID,0.9373,
2007-03-30, 02:26:00,VALID,916.663,VALID,0,VALID,97.0425,VALID,-0.0169808,VALID,20.1014,VALID,150,VALID,1.26962,
2007-03-30, 02:27:00,VALID,916.692,VALID,0,VALID,96.7017,VALID,0,VALID,20.1046,VALID,162,VALID,1.25872,
2007-03-30, 02:28:00,VALID,916.689,VALID,0,VALID,97.19,VALID,0,VALID,20.1114,VALID,168,VALID,1.39471,
2007-03-30, 02:29:00,VALID,916.705,VALID,0,VALID,97.4125,VALID,0,VALID,20.1211,VALID,165,VALID,0.904978,
2007-03-30, 02:30:00,VALID,916.708,VALID,0,VALID,97.3553,VALID,0,VALID,20.0954,VALID,164,VALID,0.828472,
2007-03-30, 02:31:00,VALID,916.697,VALID,0,VALID,97.5257,VALID,-0.0509425,VALID,20.0757,VALID,163,VALID,0.988653,
2007-03-30, 02:32:00,VALID,916.7,VALID,0,VALID,97.4965,VALID,-0.0169808,VALID,20.0333,VALID,168,VALID,0.892933,
2007-03-30, 02:33:00,VALID,916.7,VALID,0,VALID,97.4799,VALID,0,VALID,20.0103,VALID,161,VALID,0.80768,
2007-03-30, 02:34:00,VALID,916.723,VALID,0,VALID,97.5206,VALID,0,VALID,19.9943,VALID,151,VALID,0.701451,
2007-03-30, 02:35:00,VALID,916.725,VALID,0,VALID,97.5461,VALID,-0.0169808,VALID,19.9716,VALID,124,VALID,0.949023,
2007-03-30, 02:36:00,VALID,916.736,VALID,0,VALID,97.4787,VALID,-0.0339617,VALID,19.9556,VALID,126,VALID,1.16536,
2007-03-30, 02:37:00,VALID,916.736,VALID,0,VALID,97.4189,VALID,0,VALID,19.9459,VALID,120,VALID,1.17115,
2007-03-30, 02:38:00,VALID,916.74,VALID,0,VALID,97.2218,VALID,-0.0169808,VALID,19.9394,VALID,109,VALID,0.94215,
2007-03-30, 02:39:00,VALID,916.739,VALID,0,VALID,97.073,VALID,-0.0339617,VALID,19.9302,VALID,107,VALID,0.678199,
2007-03-30, 02:40:00,VALID,916.741,VALID,0,VALID,96.9522,VALID,0,VALID,19.8708,VALID,110,VALID,0.805804,
2007-03-30, 02:41:00,VALID,916.736,VALID,0,VALID,96.9344,VALID,-0.0169808,VALID,19.8416,VALID,102,VALID,0.936928,
2007-03-30, 02:42:00,VALID,916.737,VALID,0,VALID,96.9217,VALID,-0.0169808,VALID,19.8161,VALID,94,VALID,0.967731,
2007-03-30, 02:43:00,VALID,916.725,VALID,0,VALID,96.8111,VALID,0,VALID,19.7961,VALID,102,VALID,0.872954,
2007-03-30, 02:44:00,VALID,916.705,VALID,0,VALID,96.7093,VALID,-0.0849042,VALID,19.7542,VALID,119,VALID,0.906929,
2007-03-30, 02:45:00,VALID,916.71,VALID,0,VALID,96.5695,VALID,-0.0849042,VALID,19.7055,VALID,95,VALID,0.69029,
2007-03-30, 02:46:00,VALID,916.708,VALID,0,VALID,96.6737,VALID,-0.0679233,VALID,19.6539,VALID,96,VALID,0.545922,
2007-03-30, 02:47:00,VALID,916.693,VALID,0,VALID,96.97,VALID,-0.0339617,VALID,19.6214,VALID,104,VALID,0.890443,
2007-03-30, 02:48:00,VALID,916.677,VALID,0,VALID,97.2701,VALID,-0.0509425,VALID,19.6312,VALID,110,VALID,0.978561,
2007-03-30, 02:49:00,VALID,916.662,VALID,0,VALID,97.2956,VALID,-0.0679233,VALID,19.6798,VALID,119,VALID,0.398793,
2007-03-30, 02:50:00,VALID,916.66,VALID,0,VALID,97.2485,VALID,-0.101885,VALID,19.7025,VALID,133,VALID,0.771439,
2007-03-30, 02:51:00,VALID,916.631,VALID,0,VALID,97.2345,VALID,-0.0509425,VALID,19.7088,VALID,133,VALID,0.656944,
2007-03-30, 02:52:00,VALID,916.604,VALID,0,VALID,97.3045,VALID,-0.0509425,VALID,19.7155,VALID,133,VALID,0.752858,
2007-03-30, 02:53:00,VALID,916.576,VALID,0,VALID,97.3769,VALID,-0.0679233,VALID,19.712,VALID,134,VALID,0.834635,
2007-03-30, 02:54:00,VALID,916.544,VALID,0,VALID,97.3731,VALID,-0.0679233,VALID,19.7155,VALID,157,VALID,0.812682,
2007-03-30, 02:55:00,VALID,916.51,VALID,0,VALID,97.3718,VALID,-0.0679233,VALID,19.6993,VALID,164,VALID,0.77168,
2007-03-30, 02:56:00,VALID,916.476,VALID,0,VALID,97.6745,VALID,-0.0849042,VALID,19.6798,VALID,162,VALID,0.991044,
2007-03-30, 02:57:00,VALID,916.445,VALID,0,VALID,97.925,VALID,-0.0849042,VALID,19.6669,VALID,167,VALID,0.815358,
2007-03-30, 02:58:00,VALID,916.432,VALID,0,VALID,98.1933,VALID,-0.0509425,VALID,19.6474,VALID,158,VALID,0.968936,
2007-03-30, 02:59:00,VALID,916.421,VALID,0,VALID,98.3154,VALID,-0.0509425,VALID,19.6347,VALID,158,VALID,0.890253,
2007-03-30, 03:00:00,VALID,916.412,VALID,0,VALID,98.4565,VALID,-0.0509425,VALID,19.6117,VALID,154,VALID,0.964063,
2007-03-30, 03:01:00,VALID,916.408,VALID,0,VALID,98.6346,VALID,-0.0679233,VALID,19.5987,VALID,144,VALID,0.901215,
2007-03-30, 03:02:00,VALID,916.411,VALID,0,VALID,98.6346,VALID,-0.0679233,VALID,19.5825,VALID,145,VALID,0.722656,
2007-03-30, 03:03:00,VALID,916.406,VALID,0,VALID,98.7477,VALID,-0.0339617,VALID,19.579,VALID,157,VALID,0.951451,
2007-03-30, 03:04:00,VALID,916.395,VALID,0,VALID,98.6396,VALID,-0.0169808,VALID,19.5565,VALID,161,VALID,0.540587,
2007-03-30, 03:05:00,VALID,916.381,VALID,0,VALID,98.6765,VALID,-0.0509425,VALID,19.5371,VALID,159,VALID,0.93679,
2007-03-30, 03:06:00,VALID,916.365,VALID,0,VALID,98.6447,VALID,-0.0509425,VALID,19.5144,VALID,158,VALID,0.987805,
2007-03-30, 03:07:00,VALID,916.355,VALID,0,VALID,98.6829,VALID,-0.0339617,VALID,19.5114,VALID,151,VALID,0.763207,
2007-03-30, 03:08:00,VALID,916.343,VALID,0,VALID,98.5939,VALID,-0.0169808,VALID,19.4849,VALID,150,VALID,0.795351,
2007-03-30, 03:09:00,VALID,916.341,VALID,0,VALID,98.7757,VALID,-0.0169808,VALID,19.4819,VALID,158,VALID,0.781994,
2007-03-30, 03:10:00,VALID,916.331,VALID,0,VALID,99.0389,VALID,-0.0339617,VALID,19.5209,VALID,169,VALID,0.649805,
2007-03-30, 03:11:00,VALID,916.34,VALID,0,VALID,98.8456,VALID,-0.0849042,VALID,19.5273,VALID,171,VALID,0.722384,
2007-03-30, 03:12:00,VALID,916.339,VALID,0,VALID,98.9219,VALID,-0.0169808,VALID,19.5269,VALID,159,VALID,0.986607,
2007-03-30, 03:13:00,VALID,916.333,VALID,0,VALID,98.894,VALID,-0.0339617,VALID,19.5299,VALID,153,VALID,1.03142,
2007-03-30, 03:14:00,VALID,916.33,VALID,0,VALID,98.8177,VALID,0,VALID,19.5336,VALID,154,VALID,1.01616,
2007-03-30, 03:15:00,VALID,916.336,VALID,0,VALID,98.7465,VALID,-0.0849042,VALID,19.5273,VALID,147,VALID,0.866642,
2007-03-30, 03:16:00,VALID,916.357,VALID,0,VALID,98.6422,VALID,-0.0849042,VALID,19.5111,VALID,153,VALID,0.904652,
2007-03-30, 03:17:00,VALID,916.378,VALID,0,VALID,98.6473,VALID,-0.0509425,VALID,19.5114,VALID,153,VALID,1.24219,
2007-03-30, 03:18:00,VALID,916.378,VALID,0,VALID,98.693,VALID,-0.0679233,VALID,19.5306,VALID,158,VALID,1.1533,
2007-03-30, 03:19:00,VALID,916.386,VALID,0,VALID,98.632,VALID,-0.0679233,VALID,19.5665,VALID,156,VALID,1.03181,
2007-03-30, 03:20:00,VALID,916.389,VALID,0,VALID,98.5468,VALID,-0.0849042,VALID,19.5922,VALID,159,VALID,1.19186,
2007-03-30, 03:21:00,VALID,916.392,VALID,0,VALID,98.4298,VALID,-0.0849042,VALID,19.596,VALID,155,VALID,1.12221,
2007-03-30, 03:22:00,VALID,916.404,VALID,0,VALID,98.4298,VALID,-0.0509425,VALID,19.5955,VALID,149,VALID,1.22994,
2007-03-30, 03:23:00,VALID,916.391,VALID,0,VALID,98.3751,VALID,-0.0169808,VALID,19.6149,VALID,149,VALID,1.26853,
2007-03-30, 03:24:00,VALID,916.405,VALID,0,VALID,98.1806,VALID,-0.0169808,VALID,19.6212,VALID,139,VALID,1.16302,
2007-03-30, 03:25:00,VALID,916.399,VALID,0,VALID,98.178,VALID,-0.0679233,VALID,19.6312,VALID,138,VALID,1.49922,
2007-03-30, 03:26:00,VALID,916.409,VALID,0,VALID,97.9886,VALID,-0.0679233,VALID,19.6606,VALID,143,VALID,1.18023,
2007-03-30, 03:27:00,VALID,916.396,VALID,0,VALID,97.864,VALID,-0.0509425,VALID,19.6604,VALID,136,VALID,0.990799,
2007-03-30, 03:28:00,VALID,916.398,VALID,0,VALID,97.7381,VALID,-0.0339617,VALID,19.6501,VALID,145,VALID,0.959449,
2007-03-30, 03:29:00,VALID,916.391,VALID,0,VALID,97.9225,VALID,-0.0679233,VALID,19.6247,VALID,138,VALID,1.21187,
2007-03-30, 03:30:00,VALID,916.389,VALID,0,VALID,97.8958,VALID,-0.101885,VALID,19.6187,VALID,139,VALID,0.874442,
2007-03-30, 03:31:00,VALID,916.384,VALID,0,VALID,98.028,VALID,-0.0679233,VALID,19.5825,VALID,133,VALID,1.1568,
2007-03-30, 03:32:00,VALID,916.374,VALID,0,VALID,98.234,VALID,-0.0679233,VALID,19.5698,VALID,136,VALID,1.42245,
2007-03-30, 03:33:00,VALID,916.372,VALID,0,VALID,98.1997,VALID,-0.0509425,VALID,19.576,VALID,141,VALID,1.33166,
2007-03-30, 03:34:00,VALID,916.364,VALID,0,VALID,98.2353,VALID,-0.0339617,VALID,19.589,VALID,141,VALID,1.19627,